Home > Weather > Rüsselsheim > Past weeks

Flag for Germany Past Weather in Rüsselsheim, Hesse, Germany — Yesterday and Last 2 Weeks

Now
73 °F

Overcast.


Feels Like: 77 °F
Forecast: 56 / 68 °F
Wind: 12 mph from Southwest

Location: Wiesbaden Airport

Current Time: Jul 1, 2016 at 5:21:09 PM

Latest Report: Jul 1, 2016 at 4:58 PM


Visibility: N/A

Pressure: 29.98 "Hg

Humidity: 51%

Dew Point: 54 °F

Location of RüsselsheimLocation

Past Weather in Rüsselsheim — Graph

°F

Rüsselsheim Temperature Yesterday

Maximum temperature yesterday: 72 °F (at 2:58 PM)
Minimum temperature yesterday: 57 °F (at 12:58 AM)
Average temperature yesterday: 65 °F

High & Low Weather Summary for the Past Weeks

 TemperatureHumidityPressure
High90 °F (Jun 23, 3:58 PM)94% (Jun 17, 4:58 AM)30.27 "Hg (Jun 17, 4:58 AM)
Low46 °F (Jun 20, 4:58 AM)28% (Jun 29, 2:58 PM)29.59 "Hg (Jun 17, 2:58 AM)
Average65 °F71%30.03 "Hg
* Reported Jun 16 3:58 PM — Jul 1 3:58 PM, Rüsselsheim, Weather by CustomWeather, © 2016

Note: Actual official high and low records may vary slightly from our data, if they occured in-between our weather recording intervals... More about our weather records

Advertising

Rüsselsheim Weather History for the Previous 24 Hours

Scroll right to see more
 ConditionsComfort  
Time TempWeatherWind HumidityBarometerVisibility
3:58 PM
Fri, Jul 1
73 °FMore clouds than sun.17 mph53%29.98 "HgN/A
2:58 PM74 °FOvercast.17 mph51%29.98 "HgN/A
1:58 PM74 °FPartly sunny.15 mph49%29.99 "HgN/A
12:58 PM73 °FOvercast.18 mph52%30.00 "HgN/A
11:58 AM72 °FMore clouds than sun.13 mph57%30.01 "HgN/A
10:58 AM70 °FOvercast.10 mph61%30.00 "HgN/A
9:58 AM69 °FScattered clouds.10 mph63%30.00 "HgN/A
8:58 AM67 °FScattered clouds.8 mph69%30.01 "HgN/A
7:58 AM63 °FOvercast.1 mph77%30.01 "HgN/A
6:58 AM61 °FPartly sunny.No wind83%30.01 "HgN/A
5:58 AM59 °FPassing clouds.No wind82%29.99 "HgN/A
4:58 AM59 °FPassing clouds.No wind82%29.99 "HgN/A
3:58 AM59 °FMostly cloudy.1 mph82%29.99 "HgN/A
2:58 AM60 °FPartly cloudy.No wind79%29.99 "HgN/A
1:58 AM60 °FPassing clouds.3 mph80%29.99 "HgN/A
12:58 AM62 °FPassing clouds.No wind74%29.99 "HgN/A
11:58 PM
Thu, Jun 30
63 °FPassing clouds.5 mph73%30.01 "HgN/A
10:58 PM65 °FPassing clouds.3 mph67%29.99 "HgN/A
9:58 PM67 °FOvercast.6 mph63%29.98 "HgN/A
8:58 PM68 °FPartly sunny.6 mph60%29.96 "HgN/A
6:58 PM71 °FPartly sunny.10 mph53%29.96 "HgN/A
5:58 PM72 °FOvercast.10 mph50%29.96 "HgN/A
Weather by CustomWeather, © 2016

See weather overviewHow to use our weather pages